Terug naar catalogus

FENGYUN 1C DEB

ActiefPO
NORAD 29934·DEBRIS·🇨🇳 China

Gelanceerd May 10, 1999 vanaf Taiyuan Satellite Launch Center

Loading…

Volgende Passages (komende 24 uur)

TLE

VersSource: Space-Track

Epoch: Sep 14, 2026, 11:06 UTC

1 29934U 99025JG  26257.46283110  .00003644  00000-0  63020-3 0  9990
2 29934  98.8722 331.3693 0099109 122.9969 238.0805 14.65881052 38062

Volg FENGYUN 1C DEB in realtime met AllMySat

Download on the App Store